Weather History for Bentonville, AR

Change the Weather History Date:

Tuesday, January 24, 2012

  Actual Average Record
Temperature  
Mean Temperature 46 °F -  
Max Temperature 64 °F 48 °F 76 °F (1950)
Min Temperature 28 °F 25 °F -2 °F (1963)
Degree Days  
Heating Degree Days 19    
Moisture  
Dew Point 23 °F    
Average Humidity 47    
Maximum Humidity 80    
Minimum Humidity 19    
Precipitation  
Precipitation 0.00 in - - ()
Sea Level Pressure  
Sea Level Pressure 30.12 in    
Wind  
Wind Speed 4 mph (SE)    
Max Wind Speed 15 mph    
Max Gust Speed 18 mph    
Visibility 10 miles    
Events      
Averages and records for this station are not official NWS values.
T = Trace of Precipitation, MM = Missing Value Source: NWS Daily Summary

Daily Weather History Graph

Daily Weather History Graph

Search for Another Location

Airport:

Trip Planner

Search our weather history database for the weather conditions in past years. The results will help you decide how hot, cold, wet, or windy it might be!

Date:

Astronomy

Jan. 24, 2012 Rise Set
Actual Time 7:23 AM CST 5:34 PM CST
Civil Twilight 6:56 AM CST 6:01 PM CST
Nautical Twilight 6:25 AM CST 6:33 PM CST
Astronomical Twilight 5:54 AM CST 7:03 PM CST
Moon 7:57 AM CST (1/24) 7:21 PM CST (1/24)
Length of Visible Light 11h 05m
Length of Day
10h 10m
New Moon, 2% of the Moon is Illuminated
Jan 24
New Moon
Jan 30
First Quarter
Feb 7
Full
Feb 14
Last Quarter
Feb 21
New

Hourly Weather History & Observations

Time (CST) Temp. Windchill Dew Point Humidity Pressure Visibility Wind Dir Wind Speed Gust Speed Precip Events Conditions
12:15 AM 33.8 °F - 21.2 °F 60% 30.07 in 10.0 mi Calm Calm - N/A   Clear
12:35 AM 33.8 °F - 21.2 °F 60% 30.07 in 10.0 mi Calm Calm - N/A   Clear
12:55 AM 32.0 °F 28.7 °F 21.2 °F 64% 30.08 in 10.0 mi SE 3.5 mph - N/A   Clear
1:15 AM 32.0 °F - 21.2 °F 64% 30.08 in 10.0 mi Calm Calm - N/A   Clear
1:35 AM 32.0 °F - 21.2 °F 64% 30.09 in 10.0 mi Calm Calm - N/A   Clear
1:55 AM 30.2 °F - 21.2 °F 69% 30.10 in 10.0 mi Calm Calm - N/A   Clear
2:35 AM 32.0 °F - 21.2 °F 64% 30.11 in 10.0 mi Calm Calm - N/A   Clear
2:55 AM 32.0 °F - 23.0 °F 69% 30.11 in 10.0 mi Calm Calm - N/A   Clear
3:15 AM 30.2 °F - 21.2 °F 69% 30.10 in 10.0 mi Calm Calm - N/A   Clear
3:35 AM 30.2 °F - 21.2 °F 69% 30.10 in 10.0 mi Calm Calm - N/A   Clear
3:55 AM 30.2 °F - 21.2 °F 69% 30.11 in 10.0 mi Calm Calm - N/A   Clear
4:15 AM 28.4 °F - 21.2 °F 74% 30.11 in 10.0 mi Calm Calm - N/A   Clear
4:35 AM 30.2 °F 26.7 °F 23.0 °F 75% 30.11 in 10.0 mi ESE 3.5 mph - N/A   Clear
4:55 AM 30.2 °F 26.7 °F 23.0 °F 75% 30.11 in 10.0 mi ESE 3.5 mph - N/A   Clear
5:15 AM 30.2 °F 26.7 °F 23.0 °F 75% 30.12 in 10.0 mi SE 3.5 mph - N/A   Clear
5:35 AM 28.4 °F 23.3 °F 21.2 °F 74% 30.12 in 10.0 mi SE 4.6 mph - N/A   Clear
5:55 AM 30.2 °F 25.4 °F 23.0 °F 75% 30.12 in 10.0 mi ESE 4.6 mph - N/A   Clear
6:15 AM 30.2 °F 25.4 °F 24.8 °F 80% 30.13 in 10.0 mi ESE 4.6 mph - N/A   Clear
6:35 AM 30.2 °F - 23.0 °F 75% 30.13 in 10.0 mi Calm Calm - N/A   Clear
6:55 AM 30.2 °F 24.3 °F 23.0 °F 75% 30.13 in 10.0 mi ESE 5.8 mph - N/A   Clear
7:15 AM 33.8 °F 28.6 °F 24.8 °F 70% 30.13 in 10.0 mi ESE 5.8 mph - N/A   Clear
7:35 AM 33.8 °F 29.6 °F 24.8 °F 70% 30.14 in 10.0 mi ESE 4.6 mph - N/A   Clear
7:55 AM 33.8 °F 29.6 °F 26.6 °F 75% 30.14 in 10.0 mi ESE 4.6 mph - N/A   Clear
8:15 AM 37.4 °F 33.8 °F 26.6 °F 65% 30.14 in 10.0 mi ESE 4.6 mph - N/A   Clear
8:35 AM 37.4 °F - 28.4 °F 70% 30.15 in 10.0 mi Calm Calm - N/A   Clear
8:55 AM 39.2 °F 35.0 °F 26.6 °F 61% 30.16 in 10.0 mi ESE 5.8 mph - N/A   Clear
9:15 AM 42.8 °F 39.3 °F 26.6 °F 53% 30.17 in 10.0 mi ESE 5.8 mph - N/A   Clear
9:35 AM 48.2 °F - 26.6 °F 43% 30.18 in 10.0 mi ESE 8.1 mph - N/A   Clear
9:55 AM 51.8 °F - 24.8 °F 35% 30.19 in 10.0 mi ESE 9.2 mph - N/A   Clear
10:15 AM 51.8 °F - 23.0 °F 33% 30.19 in 10.0 mi SE 9.2 mph - N/A   Clear
10:35 AM 53.6 °F - 24.8 °F 33% 30.19 in 10.0 mi SE 12.7 mph - N/A   Clear
10:55 AM 55.4 °F - 24.8 °F 31% 30.19 in 10.0 mi ESE 11.5 mph - N/A   Clear
11:15 AM 57.2 °F - 23.0 °F 27% 30.18 in 10.0 mi SE 12.7 mph - N/A   Clear
11:35 AM 57.2 °F - 23.0 °F 27% 30.18 in 10.0 mi ESE 11.5 mph - N/A   Clear
11:55 AM 59.0 °F - 24.8 °F 27% 30.16 in 10.0 mi ESE 9.2 mph - N/A   Clear
12:15 PM 60.8 °F - 24.8 °F 25% 30.15 in 10.0 mi SE 8.1 mph - N/A   Clear
12:35 PM 62.6 °F - 26.6 °F 26% 30.14 in 10.0 mi SE 8.1 mph - N/A   Clear
12:55 PM 62.6 °F - 21.2 °F 20% 30.13 in 10.0 mi SE 11.5 mph - N/A   Clear
1:15 PM 62.6 °F - 21.2 °F 20% 30.13 in 10.0 mi SSE 15.0 mph - N/A   Clear
1:35 PM 62.6 °F - 21.2 °F 20% 30.13 in 10.0 mi SE 11.5 mph 18.4 mph N/A   Clear
1:55 PM 62.6 °F - 21.2 °F 20% 30.12 in 10.0 mi SSE 11.5 mph 17.3 mph N/A   Clear
2:15 PM 62.6 °F - 21.2 °F 20% 30.11 in 10.0 mi SSE 9.2 mph - N/A   Clear
2:35 PM 64.4 °F - 21.2 °F 19% 30.10 in 10.0 mi ESE 10.4 mph - N/A   Clear
2:55 PM 64.4 °F - 21.2 °F 19% 30.10 in 10.0 mi SE 12.7 mph 16.1 mph N/A   Clear
3:15 PM 62.6 °F - 21.2 °F 20% 30.10 in 10.0 mi SE 10.4 mph - N/A   Clear
3:35 PM 62.6 °F - 21.2 °F 20% 30.09 in 10.0 mi SE 9.2 mph - N/A   Clear
3:55 PM 62.6 °F - 23.0 °F 22% 30.10 in 10.0 mi SE 9.2 mph - N/A   Clear
4:15 PM 60.8 °F - 21.2 °F 22% 30.10 in 10.0 mi ESE 9.2 mph - N/A   Clear
4:55 PM 60.8 °F - 21.2 °F 22% 30.10 in 10.0 mi ESE 6.9 mph - N/A   Clear
5:15 PM 57.2 °F - 21.2 °F 25% 30.11 in 10.0 mi ESE 6.9 mph - N/A   Clear
5:35 PM 57.2 °F - 19.4 °F 23% 30.10 in 10.0 mi East 6.9 mph - N/A   Partly Cloudy
5:55 PM 55.4 °F - 21.2 °F 26% 30.10 in 10.0 mi East 6.9 mph - N/A   Mostly Cloudy
6:15 PM 55.4 °F - 21.2 °F 26% 30.09 in 10.0 mi East 6.9 mph - N/A   Mostly Cloudy
6:35 PM 53.6 °F - 23.0 °F 30% 30.11 in 10.0 mi East 8.1 mph - N/A   Clear
6:55 PM 53.6 °F - 24.8 °F 33% 30.10 in 10.0 mi East 8.1 mph - N/A   Clear
7:35 PM 53.6 °F - 21.2 °F 28% 30.10 in 10.0 mi East 11.5 mph 18.4 mph N/A   Clear
7:55 PM 53.6 °F - 21.2 °F 28% 30.09 in 10.0 mi East 11.5 mph - N/A   Clear
8:15 PM 51.8 °F - 21.2 °F 30% 30.10 in 10.0 mi East 6.9 mph - N/A   Clear
8:35 PM 51.8 °F - 21.2 °F 30% 30.10 in 10.0 mi East 8.1 mph - N/A   Clear
9:15 PM 51.8 °F - 23.0 °F 33% 30.11 in 10.0 mi East 10.4 mph - N/A   Clear
9:35 PM 51.8 °F - 24.8 °F 35% 30.13 in 10.0 mi ESE 15.0 mph 19.6 mph N/A   Mostly Cloudy
9:55 PM 51.8 °F - 24.8 °F 35% 30.14 in 10.0 mi ESE 15.0 mph 19.6 mph N/A   Overcast
10:35 PM 50.0 °F - 24.8 °F 37% 30.14 in 10.0 mi SE 11.5 mph - N/A   Overcast
10:55 PM 50.0 °F - 24.8 °F 37% 30.13 in 10.0 mi ESE 9.2 mph - N/A   Overcast
11:15 PM 50.0 °F - 24.8 °F 37% 30.13 in 10.0 mi ESE 10.4 mph - N/A   Overcast
11:35 PM 50.0 °F - 24.8 °F 37% 30.12 in 10.0 mi ESE 9.2 mph - N/A   Overcast
11:55 PM 50.0 °F - 24.8 °F 37% 30.12 in 10.0 mi ESE 8.1 mph - N/A   Overcast